This is the latest recevied weather packets stored in our database for station/object KC4JES. If no packets are shown the sender has not sent any weather packets the latest 10 day(s).
| Time | Temp. | Humidity | Pressure | Rain* | Wind** | Luminosity | Snow |
|---|---|---|---|---|---|---|---|
| 1777918417 | 25.56° C | 49% | 1018.5 hPa | 0 mm | - | 980 W/m² | - |
| 1777918116 | 25.56° C | 46% | 1018.3 hPa | 0 mm | - | 988 W/m² | - |
| 1777917813 | 25.56° C | 50% | 1018.5 hPa | 0 mm | - | 994 W/m² | - |
| 1777917512 | 25.56° C | 47% | 1018.7 hPa | 0 mm | - | 996 W/m² | - |
| 1777917208 | 25° C | 50% | 1018.7 hPa | 0 mm | - | 991 W/m² | - |
| 1777916907 | 25.56° C | 48% | 1018.6 hPa | 0 mm | - | 1001 W/m² | - |
| 1777916604 | 25.56° C | 47% | 1019 hPa | 0 mm | - | 1008 W/m² | - |
| 1777916300 | 25.56° C | 48% | 1018.8 hPa | 0 mm | - | 989 W/m² | - |
| 1777915997 | 25.56° C | 46% | 1018.8 hPa | 0 mm | - | 1009 W/m² | - |
| 1777915694 | 25° C | 48% | 1018.7 hPa | 0 mm | - | 1012 W/m² | - |
| 1777915391 | 25° C | 45% | 1019 hPa | 0 mm | - | 697 W/m² | - |
| 1777915086 | 25° C | 48% | 1018.8 hPa | 0 mm | - | 51 W/m² | - |
| 1777914784 | 25° C | 45% | 1018.9 hPa | 0 mm | - | 49 W/m² | - |
| 1777914481 | 25° C | 53% | 1019 hPa | 0 mm | - | 49 W/m² | - |
| 1777914178 | 25° C | 50% | 1019.3 hPa | 0 mm | - | 50 W/m² | - |
| 1777913874 | 25° C | 46% | 1019.2 hPa | 0 mm | - | 50 W/m² | - |
| 1777913571 | 25° C | 49% | 1019.4 hPa | 0 mm | - | 48 W/m² | - |
| 1777913267 | 25° C | 45% | 1019.4 hPa | 0 mm | - | 48 W/m² | - |
| 1777912964 | 25° C | 47% | 1019.4 hPa | 0 mm | - | 53 W/m² | - |
| 1777912660 | 25° C | 47% | 1019.2 hPa | 0 mm | - | 57 W/m² | - |
| 1777912356 | 25° C | 49% | 1019.2 hPa | 0 mm | - | 59 W/m² | - |
| 1777912052 | 25° C | 49% | 1019.1 hPa | 0 mm | - | 60 W/m² | - |
| 1777911748 | 24.44° C | 51% | 1019.2 hPa | 0 mm | - | 61 W/m² | - |
| 1777911445 | 24.44° C | 48% | 1019.4 hPa | 0 mm | - | 62 W/m² | - |
| 1777911142 | 24.44° C | 45% | 1019.5 hPa | 0 mm | - | 64 W/m² | - |
* Rain latest hour (hover to see other rain measurements)
** Current wind speed in m/s (hover to see current wind gust speed)